Terminal Aerodrome Forecast
Issued by NWS Los Angeles, CA

Home | Current Version | Previous Version | Text Only | Print | Product List | Glossary On
Versions: 1 2 3 4 5 6 7 8 9 10 11 12 13 14 15 16 17 18 19 20 21 22 23 24 25 26 27 28 29 30 31 32 33 34 35 36 37 38 39 40 41 42 43 44 45 46 47 48 49 50
000
FTUS46 KLOX 250540
TAFSMX
TAF
KSMX 250540Z 2506/2606 VRB03KT P6SM OVC008
     FM250900 VRB03KT 2SM BR OVC004
     FM251500 VRB03KT 4SM BR OVC008
     FM251700 VRB03KT P6SM OVC012
     FM252000 25008KT P6SM SCT020
     FM260200 VRB03KT P6SM BKN010
     FM260500 VRB03KT P6SM BKN008=

USA.gov is the U.S. government's official web portal to all federal, state and local government web resources and services.